Home > Time Zones > World Clock > Weather > Spain > Ibiza > Past weeks

Flag for Spain Weather past 2 weeks in Ibiza, Ibiza, Spain

Now
82 °F

Passing clouds.


Feels Like: 89 °F
Forecast: 78 / 90 °F
Wind: 7 mph from Southeast

Location: Ibiza / Es Codola

Current Time: Jul 28, 2015 at 10:40:53 PM

Latest Report: Jul 28, 2015 at 10:00 PM


Visibility: N/A

Pressure: 29.89 "Hg

Humidity: 79%

Dew point: 75 °F

Location of IbizaLocation

Historic Weather in Ibiza — Graph

°F

Ibiza temperature yesterday

Maximum temperature yesterday: 88 °F (at 1:30 PM)
Minimum temperature yesterday: 81 °F (at 12:00 AM)
Average temperature yesterday: 84 °F

Past Weeks' High & Low Weather Summary

 TemperatureHumidityPressure
High91 °F (Jul 23, 4:00 PM)94% (Jul 14, 6:30 AM)30.09 "Hg (Jul 14, 6:30 AM)
Low72 °F (Jul 14, 6:30 AM)38% (Jul 16, 5:00 PM)29.77 "Hg (Jul 24, 7:30 PM)
Average82 °F74%29.97 "Hg
* Reported Jul 13 9:00 PM — Jul 28 9:00 PM, Ibiza, Weather by CustomWeather, © 2015

Note: Actual official high and low records may vary slightly from our data, if they occured in-between our weather recording intervals... More about our weather records

Advertising

Ibiza weather history for previous 24 hours

 ConditionsComfort  
Time TempWeatherWind HumidityBarometerVisibility
9:00 PM
Tue, Jul 28
82 °FPassing clouds.7 mph79%29.86 "HgN/A
8:00 PM84 °FPassing clouds.8 mph74%29.89 "HgN/A
7:30 PM84 °FPassing clouds.10 mph74%29.86 "HgN/A
7:00 PM86 °FPassing clouds.9 mph70%29.89 "HgN/A
6:30 PM88 °FPassing clouds.9 mph62%29.89 "HgN/A
6:00 PM88 °FPassing clouds.9 mph62%29.89 "HgN/A
5:30 PM88 °FPassing clouds.9 mph66%29.89 "HgN/A
5:00 PM88 °FPassing clouds.9 mph66%29.89 "HgN/A
4:30 PM88 °FPassing clouds.9 mph62%29.92 "HgN/A
4:00 PM88 °FPassing clouds.10 mph66%29.92 "HgN/A
3:30 PM90 °FPassing clouds.10 mph59%29.92 "HgN/A
3:00 PM88 °FPassing clouds.10 mph62%29.92 "HgN/A
2:30 PM88 °FPassing clouds.12 mph62%29.95 "HgN/A
2:00 PM88 °FPassing clouds.10 mph62%29.95 "HgN/A
1:30 PM88 °FScattered clouds.12 mph62%29.95 "HgN/A
1:00 PM86 °FScattered clouds.12 mph66%29.95 "HgN/A
12:30 PM88 °FScattered clouds.9 mph62%29.95 "HgN/A
12:00 PM86 °FScattered clouds.8 mph70%29.95 "HgN/A
11:30 AM86 °FPartly sunny.8 mph70%29.95 "HgN/A
11:00 AM86 °FScattered clouds.10 mph70%29.95 "HgN/A
10:30 AM86 °FScattered clouds.10 mph70%29.95 "HgN/A
10:00 AM86 °FScattered clouds.10 mph66%29.92 "HgN/A
9:30 AM84 °FPartly sunny.9 mph74%29.92 "HgN/A
9:00 AM84 °FPartly sunny.6 mph74%29.92 "HgN/A
8:30 AM84 °FPartly sunny.6 mph74%29.92 "HgN/A
8:00 AM82 °FPartly sunny.5 mph79%29.92 "HgN/A
7:30 AM82 °FPassing clouds.3 mph84%29.89 "HgN/A
7:00 AM81 °FPartly cloudy.1 mph84%29.89 "HgN/A
6:30 AM79 °FPassing clouds.2 mph89%29.89 "HgN/A
5:30 AM81 °FPassing clouds.2 mph84%29.89 "HgN/A
4:30 AM81 °FPartly cloudy.No wind84%29.89 "HgN/A
4:00 AM82 °FPassing clouds.1 mph79%29.89 "HgN/A
3:30 AM82 °FPassing clouds.1 mph84%29.89 "HgN/A
3:00 AM81 °FPassing clouds.1 mph89%29.89 "HgN/A
2:30 AM81 °FPassing clouds.No wind84%29.89 "HgN/A
2:00 AM81 °FPassing clouds.No wind89%29.89 "HgN/A
1:30 AM81 °FPassing clouds.No wind84%29.92 "HgN/A
1:00 AM81 °FPassing clouds.No wind89%29.92 "HgN/A
12:30 AM82 °FPassing clouds.1 mph84%29.92 "HgN/A
12:00 AM82 °FPassing clouds.2 mph84%29.92 "HgN/A
11:30 PM
Mon, Jul 27
82 °FPassing clouds.1 mph84%29.89 "HgN/A
11:00 PM82 °FPassing clouds.1 mph84%29.89 "HgN/A
10:30 PM82 °FPassing clouds.2 mph89%29.89 "HgN/A
10:00 PM82 °FPartly sunny.3 mph89%29.89 "HgN/A
Weather by CustomWeather, © 2015

See weather overviewHow to use our weather pages